Location: Unspecified
(0.0000°N, 0.0000°E)
Time: 16:18:22
(UTC+01:00)

Envisat - Pass Details

Date: 01 November 2021
Orbit: 764 x 766 km, 98.2° (Epoch: 29 November)

Event Time Altitude Azimuth Distance (km) Brightness Sun altitude
Rises 05:32:25 0° 15° (NNE) 3,212 6.2 -17.2°
Reaches altitude 10° 05:34:43 10° 17° (NNE) 2,289 5.5 -16.7°
Maximum altitude 05:39:44 75° 102° (ESE) 793 3.2 -15.4°
Drops below altitude 10° 05:44:48 10° 187° (S) 2,299 5.6 -14.2°
Sets 05:47:06 0° 188° (S) 3,227 6.3 -13.7°
